OPS 4682 DEB, 38430

Orbit data source: Space-Track

OPS 4682 DEB, 38430 is space debris in LEO originally from a launch on Sat, 03 Apr 1965 UTC launched from the Air Force Western Test Range (AFWTR). Debris objects in space refer to the collection of defunct objects orbiting the Earth. Examples of debris include non-operational satellites, rocket bodies, and fragments generated from explosions, collisions, or faulty payload assembly.

Loading next visibility...
Identifier
38430, 1965-027EK
Orbit
LEO
Country
Flag of USUS
Related business
Manufacturer
Unknown
Mission
Spacecraft
Bus & Motor
Unknown
Mass
Unknown
Launch date (UTC)
1965-04-03 (61 years ago)
Launch vehicle
Unknown
Launch site
Air Force Western Test Range (AFWTR)
Object type
Payload
Rocket body
Debris
Shape & HBR
Unknown shape, 0.1 m
Radar Cross Section
Medium (>0.1 m² and <1 m²)

Expand to show TLE details & history
Last TLE update: 4 days ago

TLE from 4 days ago
0 OPS 4682 DEB
1 38430U 65027EK  26204.19420591  .00000577  00000-0  18782-2 0  9990
2 38430  90.2674  23.4580 0050053 247.8267 111.7539 13.00201984668374
Epoch: 2026-07-23T04:39Z
TLE epoch observation values (Epoch: 2026-07-23T04:39:39.390Z)
Latitude
-0.00007°
Longitude
12.60518°
Altitude
1,278.518 km
Speed
7.21 km/s
True Right ascension
01h 33m 49s
True Declination
0° 00' 00"
Sunlit
Object was in daylight at epoch
Visualization orbit readout
Latitude
Unknown
Longitude
Unknown
Altitude
Unknown
Speed
Unknown
Apparent Right ascension
Unknown
Apparent Declination
Unknown
Sunlit
N/A
Visualization observer readout
Local Sidereal Time
19:40:27
Azimuth
Unknown
Elevation
Unknown
Doppler factor
Unknown
Orbital elements
Apogee altitude
1,296.645 km
Perigee altitude
1,220.199 km
Semi-major axis
7,636.559 km
Eccentricity
0.00501
Inclination
90.2674°
RAAN
23.458°
Arg. of periapsis
247.8267°
True anomaly
112.28538°
Mean anomaly
111.7539°
Eccentric anomaly
112.01976°
Mean motion
3.25234 °/min
Orbital period
110.69 mins
BSTAR
0.0018782
Loading maneuver chart data...
Computing Atmospheric mass density...
Loading historical data...
Loading historical data...
Loading historical data...
Loading historical data...
Loading historical data...
Loading historical data...
Loading historical data...

Documentation

Showing up to 5 results
|